SDM907 UNNT-UNKL

Flight info

Callsign SDM907
Flight time 0h 44m
Altitude 39000
Route DIMID1K DIMID R27 GONPA G827 TOKMO A300 RANET RANET2Z
Aircraft A20N/M-SDE2E3FGHIRWXY/LB1

Departure

Time 2026-04-29 14:58
Airport Novosibirsk Tolmachevo Airport (UNNT)

Arrival

Time 2026-04-29 15:43
Airport Krasnoyarsk International Airport (UNKL)
Time Latitude Longitude Altitude Speed Heading
2026-04-29 14:35 55.01021 82.67051 375 ft 0 kts 172°
2026-04-29 14:48 55.01026 82.67050 374 ft 1 kts 172°
2026-04-29 14:48 55.01033 82.67049 374 ft 1 kts 172°
2026-04-29 14:49 55.01049 82.67045 375 ft 3 kts 172°
2026-04-29 14:49 55.01071 82.67039 375 ft 3 kts 172°
2026-04-29 14:49 55.01093 82.67034 375 ft 3 kts 172°
2026-04-29 14:49 55.01115 82.67029 375 ft 3 kts 171°
2026-04-29 14:50 55.01134 82.67022 374 ft 0 kts 171°
2026-04-29 14:54 55.01118 82.67026 375 ft 4 kts 171°
2026-04-29 14:54 55.01100 82.67034 375 ft 1 kts 155°
2026-04-29 14:54 55.01092 82.67056 375 ft 3 kts 109°
2026-04-29 14:54 55.01093 82.67110 375 ft 6 kts 86°
2026-04-29 14:55 55.01100 82.67199 375 ft 9 kts 82°
2026-04-29 14:55 55.01107 82.67324 375 ft 12 kts 88°
2026-04-29 14:55 55.01130 82.67465 374 ft 13 kts 41°
2026-04-29 14:55 55.01213 82.67556 374 ft 15 kts 29°
2026-04-29 14:56 55.01314 82.67655 374 ft 18 kts 30°
2026-04-29 14:56 55.01429 82.67772 373 ft 20 kts 28°
2026-04-29 14:56 55.01481 82.67763 373 ft 4 kts 295°
2026-04-29 14:56 55.01482 82.67708 373 ft 0 kts 263°
2026-04-29 14:57 55.01476 82.67625 373 ft 31 kts 262°
2026-04-29 14:57 55.01403 82.66827 376 ft 99 kts 261°
2026-04-29 14:58 55.01264 82.65329 375 ft 149 kts 261°
2026-04-29 14:58 55.01101 82.63408 704 ft 165 kts 261°
2026-04-29 14:58 55.00960 82.61416 1362 ft 165 kts 261°
2026-04-29 14:58 55.00848 82.59462 2105 ft 158 kts 259°
2026-04-29 14:59 55.00701 82.57591 2515 ft 160 kts 255°
2026-04-29 14:59 55.00466 82.55578 2711 ft 182 kts 254°
2026-04-29 14:59 55.00226 82.53283 3179 ft 204 kts 263°
2026-04-29 14:59 55.00540 82.50810 3857 ft 218 kts 297°
2026-04-29 15:00 55.01566 82.48862 4680 ft 222 kts 317°
2026-04-29 15:00 55.02973 82.47582 5221 ft 242 kts 348°
2026-04-29 15:00 55.04696 82.47504 5891 ft 252 kts
2026-04-29 15:00 55.06358 82.48437 6775 ft 255 kts 32°
2026-04-29 15:01 55.07591 82.50654 7561 ft 260 kts 60°
2026-04-29 15:01 55.08907 82.56014 8576 ft 287 kts 69°
2026-04-29 15:01 55.11863 82.69688 11202 ft 335 kts 67°
2026-04-29 15:01 55.15487 82.85645 13958 ft 364 kts 67°
2026-04-29 15:02 55.19268 83.02446 16723 ft 380 kts 67°
2026-04-29 15:02 55.23205 83.20111 19243 ft 398 kts 67°
2026-04-29 15:02 55.27267 83.38507 21564 ft 412 kts 67°
2026-04-29 15:02 55.31442 83.57584 23786 ft 426 kts 67°
2026-04-29 15:03 55.35707 83.77273 25687 ft 435 kts 67°
2026-04-29 15:03 55.40047 83.97499 27353 ft 447 kts 67°
2026-04-29 15:03 55.44454 84.18248 28924 ft 457 kts 67°
2026-04-29 15:03 55.48913 84.39455 30330 ft 465 kts 67°
2026-04-29 15:04 55.53401 84.61030 31610 ft 471 kts 66°
2026-04-29 15:04 55.57869 84.82748 33117 ft 469 kts 66°
2026-04-29 15:04 55.62261 85.04348 34748 ft 460 kts 65°
2026-04-29 15:04 55.66551 85.25646 35776 ft 460 kts 66°
2026-04-29 15:05 55.70816 85.47050 36602 ft 462 kts 66°
2026-04-29 15:05 55.72828 85.57226 37059 ft 460 kts 66°
2026-04-29 15:05 55.73882 85.62586 37283 ft 460 kts 66°
2026-04-29 15:05 55.74933 85.67937 37474 ft 460 kts 66°
2026-04-29 15:06 55.75983 85.73298 37669 ft 459 kts 66°
2026-04-29 15:06 55.77028 85.78652 37859 ft 459 kts 66°
2026-04-29 15:06 55.78073 85.84020 38032 ft 459 kts 66°
2026-04-29 15:06 55.79113 85.89377 38203 ft 459 kts 66°
2026-04-29 15:07 55.80153 85.94748 38367 ft 459 kts 67°
2026-04-29 15:07 55.81189 86.00112 38535 ft 459 kts 67°
2026-04-29 15:07 55.82223 86.05483 38695 ft 459 kts 67°
2026-04-29 15:07 55.83252 86.10848 38907 ft 458 kts 67°
2026-04-29 15:08 55.84278 86.16211 39058 ft 457 kts 67°
2026-04-29 15:08 55.86322 86.26930 39255 ft 458 kts 67°
2026-04-29 15:09 55.88346 86.37609 39353 ft 458 kts 67°
2026-04-29 15:09 55.90371 86.48353 39361 ft 457 kts 67°
2026-04-29 15:10 55.92386 86.59108 39359 ft 457 kts 67°
2026-04-29 15:10 55.94390 86.69861 39367 ft 456 kts 67°
2026-04-29 15:11 55.96381 86.80605 39366 ft 457 kts 67°
2026-04-29 15:11 55.98367 86.91387 39376 ft 458 kts 67°
2026-04-29 15:12 56.00346 87.02194 39377 ft 458 kts 68°
2026-04-29 15:12 56.02321 87.13038 39376 ft 460 kts 68°
2026-04-29 15:13 56.04283 87.23880 39373 ft 456 kts 68°
2026-04-29 15:13 56.06226 87.34677 39372 ft 457 kts 68°
2026-04-29 15:14 56.09030 87.50370 39366 ft 456 kts 68°
2026-04-29 15:14 56.16654 87.93732 39364 ft 455 kts 68°
2026-04-29 15:14 56.20408 88.15475 39230 ft 456 kts 68°
2026-04-29 15:15 56.23716 88.34865 38108 ft 451 kts 68°
2026-04-29 15:15 56.26532 88.51524 37123 ft 453 kts 68°
2026-04-29 15:15 56.30165 88.73230 35880 ft 454 kts 68°
2026-04-29 15:15 56.32719 88.95670 34733 ft 468 kts 85°
2026-04-29 15:16 56.32072 89.19268 33466 ft 473 kts 88°
2026-04-29 15:16 56.31383 89.42987 32194 ft 473 kts 88°
2026-04-29 15:16 56.31098 89.52224 31702 ft 473 kts 88°
2026-04-29 15:16 56.30913 89.58126 31218 ft 473 kts 88°
2026-04-29 15:17 56.30724 89.64042 30626 ft 472 kts 88°
2026-04-29 15:17 56.30533 89.69924 29971 ft 468 kts 89°
2026-04-29 15:17 56.30341 89.75752 29294 ft 464 kts 89°
2026-04-29 15:17 56.30211 89.79662 28854 ft 462 kts 89°
2026-04-29 15:18 56.29955 89.87249 28040 ft 456 kts 89°
2026-04-29 15:18 56.29762 89.92917 27433 ft 451 kts 89°
2026-04-29 15:18 56.29568 89.98524 26854 ft 447 kts 89°
2026-04-29 15:18 56.29371 90.04093 26281 ft 443 kts 89°
2026-04-29 15:19 56.29175 90.09599 25711 ft 439 kts 89°
2026-04-29 15:19 56.28979 90.15065 25154 ft 436 kts 89°
2026-04-29 15:19 56.28782 90.20488 24608 ft 432 kts 89°
2026-04-29 15:19 56.28584 90.25858 24066 ft 429 kts 90°
2026-04-29 15:20 56.28386 90.31187 23459 ft 425 kts 90°
2026-04-29 15:20 56.28186 90.36476 22837 ft 422 kts 90°
2026-04-29 15:20 56.27986 90.41723 22217 ft 419 kts 90°
2026-04-29 15:20 56.27785 90.46930 21622 ft 416 kts 90°
2026-04-29 15:21 56.27583 90.52106 21037 ft 413 kts 90°
2026-04-29 15:21 56.27380 90.57251 20406 ft 412 kts 90°
2026-04-29 15:21 56.27240 90.62411 19575 ft 414 kts 84°
2026-04-29 15:21 56.27560 90.67509 18974 ft 406 kts 73°
2026-04-29 15:22 56.28377 90.72258 18640 ft 389 kts 62°
2026-04-29 15:22 56.29614 90.76449 18368 ft 372 kts 51°
2026-04-29 15:22 56.30665 90.78931 18188 ft 367 kts 43°
2026-04-29 15:22 56.32516 90.82057 17919 ft 364 kts 32°
2026-04-29 15:23 56.34653 90.84434 17657 ft 357 kts 21°
2026-04-29 15:23 56.36956 90.85955 17392 ft 349 kts 10°
2026-04-29 15:23 56.39302 90.86578 17135 ft 343 kts 359°
2026-04-29 15:23 56.41665 90.86311 16876 ft 339 kts 348°
2026-04-29 15:24 56.43998 90.85700 16613 ft 340 kts 358°
2026-04-29 15:24 56.46334 90.86458 16362 ft 346 kts 17°
2026-04-29 15:24 56.48451 90.88560 16109 ft 352 kts 34°
2026-04-29 15:24 56.50110 90.91848 15862 ft 359 kts 53°
2026-04-29 15:25 56.51070 90.96055 15619 ft 368 kts 73°
2026-04-29 15:25 56.51194 91.00703 15366 ft 375 kts 94°
2026-04-29 15:25 56.50545 91.05289 15126 ft 378 kts 107°
2026-04-29 15:25 56.49595 91.09724 14887 ft 377 kts 109°
2026-04-29 15:26 56.48638 91.14123 14641 ft 375 kts 108°
2026-04-29 15:26 56.47745 91.18538 14410 ft 373 kts 106°
2026-04-29 15:26 56.46910 91.22970 14171 ft 372 kts 105°
2026-04-29 15:26 56.46110 91.27410 13910 ft 370 kts 104°
2026-04-29 15:27 56.45330 91.31820 13645 ft 368 kts 104°
2026-04-29 15:27 56.44557 91.36212 13376 ft 366 kts 104°
2026-04-29 15:27 56.43787 91.40583 13108 ft 364 kts 105°
2026-04-29 15:27 56.43018 91.44930 12846 ft 362 kts 105°
2026-04-29 15:28 56.42251 91.49254 12585 ft 361 kts 105°
2026-04-29 15:28 56.41743 91.52111 12416 ft 360 kts 105°
2026-04-29 15:28 56.40719 91.57848 12072 ft 358 kts 105°
2026-04-29 15:28 56.39955 91.62115 11820 ft 356 kts 105°
2026-04-29 15:29 56.39194 91.66361 11564 ft 355 kts 105°
2026-04-29 15:29 56.37678 91.74786 11084 ft 353 kts 105°
2026-04-29 15:30 56.36166 91.83143 10737 ft 342 kts 106°
2026-04-29 15:30 56.35437 91.87149 10619 ft 330 kts 106°
2026-04-29 15:30 56.34734 91.91007 10499 ft 317 kts 106°
2026-04-29 15:30 56.34055 91.94726 10285 ft 309 kts 106°
2026-04-29 15:31 56.33389 91.98383 9980 ft 304 kts 106°
2026-04-29 15:31 56.32736 92.01958 9842 ft 301 kts 106°
2026-04-29 15:31 56.32079 92.05560 9708 ft 303 kts 106°
2026-04-29 15:31 56.31421 92.09149 9569 ft 301 kts 106°
2026-04-29 15:32 56.30765 92.12715 9434 ft 300 kts 106°
2026-04-29 15:32 56.30109 92.16278 9295 ft 300 kts 106°
2026-04-29 15:32 56.29510 92.19860 9165 ft 297 kts 99°
2026-04-29 15:32 56.29237 92.23518 9020 ft 295 kts 94°
2026-04-29 15:33 56.29018 92.27189 8897 ft 295 kts 94°
2026-04-29 15:33 56.28793 92.30848 8770 ft 294 kts 94°
2026-04-29 15:33 56.28563 92.34510 8637 ft 294 kts 94°
2026-04-29 15:33 56.28331 92.38164 8510 ft 294 kts 94°
2026-04-29 15:34 56.28096 92.41821 8252 ft 294 kts 94°
2026-04-29 15:34 56.27861 92.45479 7897 ft 294 kts 94°
2026-04-29 15:34 56.27626 92.49114 7542 ft 292 kts 95°
2026-04-29 15:34 56.27391 92.52731 7181 ft 290 kts 95°
2026-04-29 15:35 56.27157 92.56312 6831 ft 287 kts 95°
2026-04-29 15:35 56.26924 92.59872 6474 ft 285 kts 95°
2026-04-29 15:35 56.26694 92.63347 6336 ft 274 kts 95°
2026-04-29 15:35 56.26437 92.66678 6218 ft 264 kts 101°
2026-04-29 15:36 56.25885 92.69782 5975 ft 260 kts 113°
2026-04-29 15:36 56.25154 92.72754 5665 ft 259 kts 113°
2026-04-29 15:36 56.24445 92.75680 5336 ft 259 kts 113°
2026-04-29 15:36 56.23731 92.78646 4940 ft 258 kts 113°
2026-04-29 15:37 56.22942 92.81530 4541 ft 256 kts 127°
2026-04-29 15:37 56.21598 92.83552 4146 ft 251 kts 159°
2026-04-29 15:37 56.19938 92.84100 3764 ft 241 kts 190°
2026-04-29 15:37 56.18376 92.83227 3406 ft 232 kts 210°
2026-04-29 15:38 56.16952 92.81892 3143 ft 232 kts 213°
2026-04-29 15:38 56.15553 92.80543 3028 ft 225 kts 211°
2026-04-29 15:38 56.14152 92.79288 2994 ft 226 kts 210°
2026-04-29 15:38 56.12805 92.77897 2986 ft 219 kts 228°
2026-04-29 15:39 56.12053 92.75682 2992 ft 201 kts 258°
2026-04-29 15:39 56.11951 92.73313 2994 ft 183 kts 277°
2026-04-29 15:39 56.12210 92.71100 3018 ft 178 kts 287°
2026-04-29 15:39 56.12597 92.69128 2990 ft 156 kts 291°
2026-04-29 15:40 56.12973 92.67458 2834 ft 140 kts 291°
2026-04-29 15:40 56.13336 92.65900 2643 ft 128 kts 292°
2026-04-29 15:40 56.13683 92.64442 2482 ft 129 kts 291°
2026-04-29 15:40 56.14034 92.62969 2308 ft 128 kts 292°
2026-04-29 15:41 56.14384 92.61501 2137 ft 128 kts 291°
2026-04-29 15:41 56.14735 92.60030 1956 ft 128 kts 291°
2026-04-29 15:41 56.15091 92.58540 1769 ft 132 kts 292°
2026-04-29 15:41 56.15452 92.57026 1584 ft 133 kts 292°
2026-04-29 15:42 56.15816 92.55499 1404 ft 134 kts 292°
2026-04-29 15:42 56.16181 92.53969 1224 ft 134 kts 292°
2026-04-29 15:42 56.16547 92.52441 1044 ft 133 kts 293°
2026-04-29 15:42 56.16914 92.50933 938 ft 127 kts 293°
2026-04-29 15:43 56.17178 92.49806 935 ft 69 kts 292°
2026-04-29 15:43 56.17289 92.49324 936 ft 24 kts 292°
2026-04-29 15:43 56.17357 92.49036 936 ft 26 kts 295°
2026-04-29 15:43 56.17450 92.48757 937 ft 25 kts 319°
2026-04-29 15:44 56.17532 92.48649 935 ft 1 kts 323°
2026-04-29 15:44 56.17547 92.48629 935 ft 4 kts 323°
2026-04-29 15:44 56.17580 92.48586 937 ft 7 kts 324°
2026-04-29 15:44 56.17629 92.48522 936 ft 10 kts 324°
2026-04-29 15:45 56.17693 92.48437 936 ft 13 kts 324°
2026-04-29 15:45 56.17782 92.48400 935 ft 14 kts 14°
2026-04-29 15:45 56.17829 92.48431 935 ft 4 kts 22°
2026-04-29 15:45 56.17866 92.48462 937 ft 8 kts 26°
2026-04-29 15:46 56.17920 92.48503 937 ft 0 kts 22°
2026-04-29 15:46 56.17927 92.48508 937 ft 3 kts 22°
2026-04-29 15:46 56.17956 92.48531 937 ft 6 kts 24°
2026-04-29 15:46 56.17961 92.48535 937 ft 0 kts 24°